Wasilla, AK

2:46 AM AKDT on May 28, 2017 (GMT -0800)
Wasilla

Weather History for PAWS - August, 2013

Change the Weather History Date:

Thursday, August 22, 2013

  Actual Average Record
Temperature  
Mean Temperature 52 °F -  
Max Temperature 55 °F 67 °F 80 °F (1977)
Min Temperature 50 °F 44 °F 32 °F (1978)
Degree Days  
Heating Degree Days 12    
Growing Degree Days 2 (Base 50)    
Moisture  
Dew Point 46 °F    
Average Humidity 79    
Maximum Humidity 87    
Minimum Humidity 72    
Precipitation  
Precipitation 0.39 in - - ()
Sea Level Pressure  
Sea Level Pressure 29.74 in    
Wind  
Wind Speed 6 mph (ENE)    
Max Wind Speed 9 mph    
Max Gust Speed -    
Visibility 10 miles    
Events      
Averages and records for this station are not official NWS values.
T = Trace of Precipitation, MM = Missing Value Source: NWS Daily Summary

Daily Weather History Graph

Daily Weather History Graph

Search for Another Location

Airport or City:

Trip Planner

Search our weather history database for the weather conditions in past years. The results will help you decide how hot, cold, wet, or windy it might be!

Date:

Astronomy

Aug. 22, 2013 Rise Set
Actual Time 6:24 AM AKDT 9:35 PM AKDT
Civil Twilight 5:32 AM AKDT 10:26 PM AKDT
Nautical Twilight 4:18 AM AKDT 11:39 PM AKDT
Astronomical Twilight 2:33 AM AKDT 1:28 AM AKDT
Moon 9:24 PM AKDT (8/22) 9:16 AM AKDT (8/22)
Length of Visible Light 16h 54m
Length of Day
15h 11m
Waning Gibbous, 96% of the Moon is Illuminated
Aug 22
Waning Gibbous
Aug 28
Last Quarter
Sep 5
New
Sep 12
First Quarter
Sep 19
Full

Hourly Weather History & Observations

Time (AKDT) Temp. Dew Point Humidity Pressure Visibility Wind Dir Wind Speed Gust Speed Precip Events Conditions
12:16 AM 50.0 °F 44.6 °F 82% 29.77 in 10.0 mi ENE 8.1 mph - 0.01 in   Overcast
12:36 AM 50.0 °F 44.6 °F 82% 29.77 in 10.0 mi ENE 8.1 mph - 0.01 in   Overcast
12:56 AM 50.0 °F 44.6 °F 82% 29.77 in 10.0 mi ENE 8.1 mph - 0.02 in   Overcast
1:16 AM 50.0 °F 44.6 °F 82% 29.76 in 10.0 mi East 8.1 mph - N/A   Overcast
1:36 AM 50.0 °F 44.6 °F 82% 29.76 in 10.0 mi ENE 8.1 mph - 0.01 in   Overcast
1:56 AM 51.8 °F 44.6 °F 76% 29.76 in 10.0 mi ENE 8.1 mph - 0.01 in   Overcast
2:16 AM 51.8 °F 44.6 °F 76% 29.76 in 10.0 mi ENE 6.9 mph - N/A   Overcast
2:36 AM 51.8 °F 44.6 °F 76% 29.76 in 10.0 mi ENE 9.2 mph - 0.01 in   Overcast
2:56 AM 51.8 °F 44.6 °F 76% 29.75 in 10.0 mi ENE 8.1 mph - 0.01 in   Overcast
3:16 AM 51.8 °F 44.6 °F 76% 29.75 in 10.0 mi East 6.9 mph - 0.01 in   Overcast
3:36 AM 51.8 °F 44.6 °F 76% 29.75 in 10.0 mi ENE 6.9 mph - 0.01 in   Overcast
3:56 AM 51.8 °F 44.6 °F 76% 29.75 in 10.0 mi ENE 8.1 mph - 0.02 in   Overcast
4:16 AM 51.8 °F 44.6 °F 76% 29.75 in 10.0 mi ENE 5.8 mph - 0.01 in   Overcast
4:36 AM 51.8 °F 44.6 °F 76% 29.75 in 10.0 mi ENE 6.9 mph - 0.02 in   Overcast
4:56 AM 51.8 °F 44.6 °F 76% 29.75 in 10.0 mi ENE 6.9 mph - 0.02 in   Overcast
5:16 AM 51.8 °F 44.6 °F 76% 29.75 in 10.0 mi ENE 6.9 mph - 0.01 in   Overcast
5:36 AM 51.8 °F 44.6 °F 76% 29.75 in 10.0 mi ENE 8.1 mph - 0.02 in   Overcast
5:56 AM 51.8 °F 44.6 °F 76% 29.75 in 10.0 mi ENE 6.9 mph - 0.03 in   Overcast
6:16 AM 51.8 °F 44.6 °F 76% 29.75 in 10.0 mi ENE 6.9 mph - 0.01 in   Overcast
6:36 AM 50.0 °F 44.6 °F 82% 29.75 in 10.0 mi ENE 8.1 mph - 0.01 in   Overcast
6:56 AM 50.0 °F 44.6 °F 82% 29.74 in 10.0 mi ENE 6.9 mph - 0.02 in   Overcast
7:16 AM 51.8 °F 44.6 °F 76% 29.75 in 10.0 mi ENE 5.8 mph - N/A   Overcast
7:36 AM 51.8 °F 44.6 °F 76% 29.74 in 10.0 mi ENE 4.6 mph - N/A   Overcast
7:56 AM 51.8 °F 46.4 °F 82% 29.74 in 10.0 mi East 5.8 mph - N/A   Overcast
8:16 AM 51.8 °F 44.6 °F 76% 29.74 in 10.0 mi ENE 6.9 mph - N/A   Overcast
8:36 AM 51.8 °F 44.6 °F 76% 29.74 in 10.0 mi East 5.8 mph - N/A   Overcast
8:56 AM 51.8 °F 46.4 °F 82% 29.74 in 10.0 mi East 4.6 mph - N/A   Overcast
9:16 AM 51.8 °F 46.4 °F 82% 29.74 in 10.0 mi ENE 9.2 mph - N/A   Overcast
9:36 AM 53.6 °F 46.4 °F 77% 29.74 in 10.0 mi ENE 5.8 mph - N/A   Unknown
9:56 AM 53.6 °F 46.4 °F 77% 29.74 in 10.0 mi ENE 8.1 mph - N/A   Overcast
10:16 AM 53.6 °F 46.4 °F 77% 29.74 in 10.0 mi East 4.6 mph - N/A   Overcast
10:36 AM 53.6 °F 46.4 °F 77% 29.74 in 10.0 mi ENE 5.8 mph - N/A   Overcast
10:56 AM 53.6 °F 46.4 °F 77% 29.74 in 10.0 mi East 3.5 mph - N/A   Overcast
11:16 AM 53.6 °F 46.4 °F 77% 29.74 in 10.0 mi Calm Calm - N/A   Overcast
11:36 AM 53.6 °F 48.2 °F 82% 29.75 in 10.0 mi Calm Calm - 0.01 in   Overcast
11:56 AM 53.6 °F 48.2 °F 82% 29.75 in 10.0 mi ESE 3.5 mph - 0.01 in   Overcast
12:16 PM 53.6 °F 48.2 °F 82% 29.75 in 10.0 mi Calm Calm - N/A   Overcast
12:36 PM 55.4 °F 46.4 °F 72% 29.75 in 10.0 mi Calm Calm - N/A   Overcast
12:56 PM 55.4 °F 48.2 °F 77% 29.74 in 10.0 mi Calm Calm - N/A   Overcast
1:16 PM 55.4 °F 48.2 °F 77% 29.75 in 10.0 mi ENE 4.6 mph - N/A   Overcast
1:36 PM 55.4 °F 46.4 °F 72% 29.74 in 10.0 mi ENE 5.8 mph - N/A   Overcast
1:56 PM 53.6 °F 46.4 °F 77% 29.74 in 10.0 mi East 4.6 mph - N/A   Overcast
2:16 PM 53.6 °F 46.4 °F 77% 29.74 in 10.0 mi ENE 3.5 mph - N/A   Overcast
2:36 PM 53.6 °F 46.4 °F 77% 29.74 in 10.0 mi ENE 4.6 mph - 0.01 in   Overcast
2:56 PM 53.6 °F 46.4 °F 77% 29.74 in 10.0 mi ENE 4.6 mph - 0.01 in   Overcast
3:16 PM 53.6 °F 46.4 °F 77% 29.74 in 10.0 mi Calm Calm - N/A   Overcast
3:36 PM 53.6 °F 48.2 °F 82% 29.74 in 10.0 mi NE 3.5 mph - N/A   Overcast
3:56 PM 53.6 °F 48.2 °F 82% 29.74 in 10.0 mi NE 3.5 mph - N/A   Overcast
4:16 PM 55.4 °F 46.4 °F 72% 29.73 in 10.0 mi East 3.5 mph - N/A   Overcast
4:36 PM 53.6 °F 46.4 °F 77% 29.73 in 10.0 mi ENE 3.5 mph - N/A   Overcast
4:56 PM 53.6 °F 48.2 °F 82% 29.72 in 10.0 mi Calm Calm - 0.02 in   Overcast
5:16 PM 53.6 °F 48.2 °F 82% 29.72 in 9.0 mi Calm Calm - N/A   Overcast
5:36 PM 53.6 °F 48.2 °F 82% 29.72 in 10.0 mi NE 3.5 mph - 0.01 in   Overcast
5:56 PM 53.6 °F 48.2 °F 82% 29.72 in 10.0 mi NE 4.6 mph - 0.02 in   Overcast
6:16 PM 53.6 °F 48.2 °F 82% 29.72 in 10.0 mi NE 3.5 mph - 0.01 in   Overcast
6:36 PM 53.6 °F 48.2 °F 82% 29.72 in 10.0 mi ENE 4.6 mph - 0.02 in   Overcast
6:56 PM 53.6 °F 48.2 °F 82% 29.72 in 9.0 mi ENE 4.6 mph - 0.02 in   Overcast
7:16 PM 53.6 °F 48.2 °F 82% 29.71 in 9.0 mi NE 3.5 mph - 0.03 in   Overcast
7:36 PM 51.8 °F 46.4 °F 82% 29.71 in 10.0 mi NE 6.9 mph - 0.06 in   Overcast
7:56 PM 51.8 °F 46.4 °F 82% 29.71 in 10.0 mi NE 5.8 mph - 0.07 in   Overcast
8:16 PM 51.8 °F 46.4 °F 82% 29.71 in 8.0 mi NE 5.8 mph - 0.02 in   Overcast
8:36 PM 51.8 °F 46.4 °F 82% 29.71 in 6.0 mi NE 6.9 mph - 0.04 in   Overcast
8:56 PM 51.8 °F 46.4 °F 82% 29.71 in 10.0 mi NE 3.5 mph - 0.04 in   Overcast
9:16 PM 51.8 °F 46.4 °F 82% 29.71 in 9.0 mi NNE 3.5 mph - 0.01 in   Overcast
9:36 PM 51.8 °F 46.4 °F 82% 29.71 in 7.0 mi NNE 4.6 mph - 0.03 in   Overcast
9:56 PM 51.8 °F 46.4 °F 82% 29.71 in 10.0 mi NE 4.6 mph - 0.05 in   Overcast
10:16 PM 51.8 °F 46.4 °F 82% 29.71 in 10.0 mi ENE 3.5 mph - 0.01 in   Overcast
10:36 PM 51.8 °F 46.4 °F 82% 29.71 in 10.0 mi Calm Calm - 0.01 in   Overcast
10:56 PM 51.8 °F 46.4 °F 82% 29.70 in 9.0 mi NE 3.5 mph - 0.02 in   Overcast
11:16 PM 51.8 °F 46.4 °F 82% 29.70 in 10.0 mi Calm Calm - N/A   Overcast
11:36 PM 51.8 °F 46.4 °F 82% 29.69 in 10.0 mi Calm Calm - N/A   Overcast
11:56 PM 50.0 °F 46.4 °F 87% 29.69 in 10.0 mi Calm Calm - N/A   Overcast